Location: *
(49.0044°N, 9.5056°E)
Time: 10:16:02
(UTC+00:00)

SAR-Lupe-2 - Pass Details

Date: 22 September 2019
Orbit: 481 x 485 km, 98.2° (Epoch: 07 October)

Event Time Altitude Azimuth Distance (km) Brightness Sun altitude
Rises 19:04:28 0° 10° (N) 2,563 7.4 -17.4°
Reaches altitude 10° 19:06:34 10° 6° (N) 1,676 6.5 -17.8°
Maximum altitude 19:10:06 57° 288° (WNW) 579 4.2 -18.3°
Drops below altitude 10° 19:13:36 10° 210° (SSW) 1,659 6.3 -18.8°
Sets 19:15:40 0° 206° (SSW) 2,533 7.2 -19.1°
